QPF
0.05 0.05 0.05 0.04 0.04 0.04 0.05 0.06 0.07 0.06 0.07 0.08 0.06 0.07 0.07 0.08 0.11 0.11 0.11 0.11 0.09 0.08 0.10 0.12 0.12 0.12 0.12 0.12 0.13 0.15 0.16 0.16 0.15 0.15 0.16 0.16 0.14 0.13
0.04 0.03 0.03 0.03 0.03 0.03 0.04 0.06 0.08 0.08 0.08 0.08 0.08 0.08 0.08 0.08 0.10 0.09 0.08 0.07 0.05 0.05 0.06 0.09 0.11 0.11 0.11 0.11 0.09 0.07 0.08 0.09 0.12 0.13 0.13 0.14 0.16 0.14
0.04 0.03 0.02 0.02 0.03 0.03 0.04 0.06 0.06 0.06 0.07 0.08 0.10 0.11 0.11 0.10 0.09 0.06 0.05 0.04 0.03 0.04 0.04 0.05 0.07 0.07 0.07 0.07 0.06 0.04 0.05 0.07 0.10 0.14 0.16 0.16 0.16 0.14
0.04 0.03 0.02 0.03 0.03 0.03 0.04 0.04 0.04 0.04 0.04 0.04 0.04 0.05 0.06 0.06 0.04 0.03 0.03 0.03 0.03 0.05 0.05 0.06 0.07 0.08 0.07 0.05 0.05 0.05 0.06 0.07 0.09 0.11 0.11 0.11 0.10 0.10
0.03 0.03 0.04 0.03 0.03 0.03 0.03 0.03 0.05 0.06 0.04 0.03 0.02 0.02 0.03 0.02 0.02 0.02 0.03 0.03 0.04 0.06 0.06 0.07 0.08 0.09 0.09 0.08 0.07 0.07 0.06 0.06 0.06 0.07 0.09 0.10 0.12 0.12
0.02 0.03 0.06 0.06 0.04 0.03 0.02 0.02 0.05 0.07 0.05 0.03 0.02 0.02 0.02 0.02 0.02 0.02 0.03 0.05 0.06 0.07 0.07 0.07 0.07 0.07 0.07 0.07 0.07 0.06 0.06 0.06 0.05 0.04 0.05 0.06 0.06 0.07
0.02 0.03 0.05 0.06 0.06 0.05 0.03 0.02 0.03 0.03 0.03 0.03 0.02 0.02 0.02 0.02 0.03 0.03 0.04 0.05 0.06 0.06 0.05 0.05 0.06 0.05 0.06 0.07 0.06 0.05 0.05 0.04 0.04 0.03 0.03 0.03 0.03 0.04
0.03 0.04 0.05 0.05 0.04 0.04 0.03 0.02 0.02 0.02 0.02 0.02 0.02 0.02 0.02 0.03 0.03 0.05 0.04 0.04 0.04 0.04 0.03 0.03 0.03 0.03 0.03 0.02 0.03 0.03 0.03 0.03 0.03 0.03 0.02 0.02 0.02 0.03
0.05 0.06 0.05 0.04 0.02 0.02 0.02 0.02 0.02 0.02 0.02 0.02 0.01 0.01 0.02 0.02 0.03 0.05 0.06 0.05 0.05 0.04 0.04 0.03 0.02 0.01 0.01 0.01 0.01 0.01 0.02 0.02 0.03 0.03 0.02 0.01 0.01 0.02
0.03 0.03 0.02 0.01 0.01 0.01 0.01 0.01 0.01 0.02 0.01 0.01 0.01 0.01 0.01 0.02 0.03 0.05 0.06 0.07 0.06 0.05 0.03 0.03 0.02 0.01 0.01 0.01 0.02 0.01 0.01 0.01 0.01 0.01 0.01 0.01 0.01 0.01
0.00 0.00 0.00 0.00 0.00 0.01 0.01 0.01 0.00 0.01 0.01 0.00 0.00 0.00 0.01 0.01 0.02 0.03 0.03 0.04 0.03 0.03 0.02 0.02 0.02 0.01 0.02 0.02 0.01 0.01 0.00 0.00 0.00 0.00 0.00 0.00 0.00 0.00
0.00 0.00 0.00 0.00 0.00 0.00 0.01 0.00 0.00 0.00 0.01 0.00 0.00 0.00 0.01 0.01 0.02 0.02 0.02 0.02 0.02 0.02 0.02 0.02 0.02 0.01 0.01 0.01 0.00 0.00 0.00 0.00 0.00 0.00 0.00 0.00 0.00 0.00
0.00 0.00 0.00 0.00 0.00 0.00 0.01 0.01 0.01 0.01 0.01 0.01 0.01 0.01 0.01 0.02 0.03 0.04 0.03 0.02 0.02 0.02 0.01 0.01 0.00 0.01 0.01 0.00 0.00 0.00 0.00 0.00 0.00 0.00 0.00 0.00 0.00 0.00
0.00 0.00 0.00 0.00 0.01 0.01 0.02 0.02 0.02 0.01 0.01 0.02 0.03 0.03 0.03 0.03 0.03 0.05 0.04 0.02 0.01 0.01 0.01 0.01 0.01 0.01 0.01 0.00 0.00 0.00 0.00 0.00 0.00 0.00 0.00 0.00 0.01 0.01
0.00 0.00 0.00 0.01 0.01 0.02 0.03 0.03 0.03 0.03 0.03 0.03 0.03 0.02 0.02 0.01 0.01 0.02 0.03 0.02 0.02 0.01 0.01 0.00 0.00 0.00 0.00 0.00 0.00 0.00 0.00 0.00 0.00 0.00 0.00 0.00 0.00 0.00
0.01 0.01 0.01 0.01 0.01 0.02 0.02 0.02 0.03 0.03 0.03 0.03 0.02 0.02 0.01 0.01 0.01 0.01 0.02 0.02 0.02 0.02 0.02 0.01 0.01 0.00 0.00 0.00 0.00 0.00 0.00 0.00 0.00 0.00 0.00 0.00 0.00 0.00
0.02 0.02 0.02 0.02 0.02 0.02 0.02 0.02 0.02 0.02 0.02 0.01 0.01 0.01 0.01 0.01 0.01 0.01 0.01 0.02 0.02 0.02 0.02 0.02 0.02 0.01 0.01 0.00 0.00 0.00 0.00 0.00 0.00 0.00 0.00 0.00 0.00 0.00
0.02 0.01 0.01 0.02 0.02 0.03 0.03 0.02 0.02 0.02 0.01 0.01 0.00 0.00 0.00 0.00 0.00 0.01 0.01 0.01 0.01 0.01 0.02 0.02 0.01 0.01 0.01 0.00 0.00 0.00 0.00 0.00 0.00 0.00 0.00 0.00 0.00 0.00
0.02 0.02 0.02 0.01 0.01 0.02 0.02 0.02 0.02 0.02 0.01 0.00 0.00 0.00 0.00 0.00 0.01 0.01 0.01 0.01 0.01 0.01 0.01 0.01 0.01 0.01 0.01 0.00 0.00 0.00 0.00 0.00 0.00 0.00 0.00 0.00 0.00 0.00
0.01 0.01 0.02 0.02 0.02 0.02 0.02 0.02 0.02 0.01 0.01 0.01 0.00 0.00 0.00 0.01 0.01 0.01 0.01 0.01 0.02 0.03 0.03 0.02 0.02 0.01 0.01 0.01 0.01 0.01 0.01 0.00 0.00 0.00 0.00 0.00 0.00 0.00
0.01 0.01 0.01 0.01 0.01 0.01 0.01 0.01 0.01 0.01 0.01 0.01 0.00 0.00 0.00 0.01 0.01 0.02 0.03 0.02 0.01 0.02 0.03 0.03 0.02 0.02 0.02 0.02 0.01 0.01 0.01 0.00 0.00 0.00 0.00 0.00 0.00 0.00
0.01 0.01 0.01 0.01 0.01 0.01 0.01 0.01 0.01 0.01 0.01 0.00 0.00 0.00 0.00 0.00 0.01 0.01 0.02 0.03 0.04 0.03 0.02 0.02 0.02 0.02 0.03 0.03 0.02 0.02 0.02 0.01 0.01 0.00 0.00 0.00 0.00 0.00
0.01 0.01 0.02 0.01 0.01 0.01 0.01 0.01 0.00 0.00 0.00 0.00 0.00 0.00 0.00 0.01 0.01 0.01 0.01 0.02 0.03 0.04 0.04 0.04 0.03 0.02 0.02 0.02 0.03 0.03 0.03 0.03 0.03 0.02 0.01 0.01 0.01 0.00
MSLP
1017.00 1016.85 1016.73 1016.63 1016.54 1016.48 1016.47 1016.51 1016.63 1016.83 1017.12 1017.48 1017.88 1018.28 1018.63 1018.89 1019.04 1019.07 1018.99 1018.83 1018.62 1018.40 1018.19 1018.01 1017.84 1017.66 1017.43 1017.14 1016.75 1016.26 1015.70 1015.08 1014.46 1013.89 1013.41 1013.07 1012.88 1012.84
1017.17 1016.99 1016.81 1016.64 1016.48 1016.37 1016.31 1016.33 1016.45 1016.69 1017.05 1017.49 1017.99 1018.49 1018.94 1019.29 1019.52 1019.60 1019.55 1019.40 1019.19 1018.95 1018.72 1018.51 1018.31 1018.11 1017.87 1017.56 1017.15 1016.65 1016.05 1015.39 1014.72 1014.08 1013.53 1013.10 1012.82 1012.71
1017.40 1017.20 1016.98 1016.75 1016.54 1016.36 1016.25 1016.24 1016.35 1016.60 1016.98 1017.48 1018.04 1018.62 1019.14 1019.57 1019.87 1020.02 1020.02 1019.91 1019.72 1019.50 1019.27 1019.07 1018.87 1018.67 1018.44 1018.14 1017.74 1017.25 1016.66 1016.00 1015.32 1014.66 1014.07 1013.60 1013.27 1013.10
1017.64 1017.45 1017.22 1016.97 1016.71 1016.49 1016.33 1016.28 1016.35 1016.58 1016.95 1017.45 1018.03 1018.64 1019.22 1019.71 1020.07 1020.28 1020.36 1020.31 1020.18 1020.00 1019.82 1019.65 1019.48 1019.31 1019.11 1018.84 1018.48 1018.03 1017.48 1016.86 1016.20 1015.57 1014.99 1014.51 1014.18 1013.99
1017.86 1017.70 1017.49 1017.24 1016.98 1016.73 1016.53 1016.43 1016.45 1016.62 1016.95 1017.41 1017.97 1018.57 1019.16 1019.68 1020.09 1020.38 1020.53 1020.57 1020.52 1020.43 1020.32 1020.21 1020.11 1019.99 1019.83 1019.62 1019.32 1018.92 1018.43 1017.88 1017.29 1016.71 1016.18 1015.75 1015.44 1015.26
1017.99 1017.89 1017.73 1017.52 1017.27 1017.02 1016.79 1016.64 1016.61 1016.70 1016.95 1017.33 1017.83 1018.39 1018.96 1019.49 1019.94 1020.28 1020.52 1020.66 1020.72 1020.74 1020.73 1020.71 1020.68 1020.63 1020.55 1020.39 1020.16 1019.83 1019.43 1018.96 1018.46 1017.96 1017.52 1017.16 1016.90 1016.76
1017.97 1017.94 1017.84 1017.69 1017.49 1017.26 1017.03 1016.85 1016.75 1016.77 1016.92 1017.21 1017.61 1018.10 1018.62 1019.14 1019.61 1020.02 1020.34 1020.59 1020.77 1020.90 1021.01 1021.09 1021.15 1021.18 1021.17 1021.08 1020.92 1020.67 1020.35 1019.98 1019.58 1019.19 1018.85 1018.58 1018.40 1018.32
1017.75 1017.79 1017.78 1017.70 1017.56 1017.37 1017.16 1016.97 1016.83 1016.77 1016.83 1017.02 1017.32 1017.72 1018.18 1018.67 1019.15 1019.60 1020.00 1020.35 1020.64 1020.89 1021.11 1021.30 1021.46 1021.57 1021.63 1021.61 1021.52 1021.36 1021.13 1020.85 1020.56 1020.28 1020.04 1019.87 1019.78 1019.76
1017.33 1017.43 1017.50 1017.50 1017.43 1017.30 1017.13 1016.94 1016.78 1016.68 1016.67 1016.76 1016.97 1017.28 1017.68 1018.13 1018.60 1019.08 1019.54 1019.97 1020.36 1020.72 1021.04 1021.32 1021.56 1021.75 1021.87 1021.93 1021.91 1021.83 1021.68 1021.51 1021.32 1021.15 1021.02 1020.94 1020.93 1020.97
1016.75 1016.90 1017.02 1017.09 1017.10 1017.03 1016.92 1016.76 1016.61 1016.49 1016.44 1016.47 1016.61 1016.85 1017.18 1017.58 1018.04 1018.52 1019.01 1019.49 1019.94 1020.38 1020.77 1021.13 1021.44 1021.69 1021.88 1022.00 1022.06 1022.05 1022.00 1021.92 1021.84 1021.77 1021.73 1021.74 1021.80 1021.90
1016.10 1016.25 1016.40 1016.52 1016.59 1016.60 1016.54 1016.45 1016.33 1016.23 1016.16 1016.17 1016.26 1016.45 1016.73 1017.09 1017.51 1017.97 1018.46 1018.95 1019.44 1019.91 1020.35 1020.75 1021.11 1021.41 1021.66 1021.84 1021.97 1022.04 1022.08 1022.09 1022.10 1022.13 1022.18 1022.26 1022.38 1022.53
1015.47 1015.60 1015.74 1015.88 1015.99 1016.05 1016.07 1016.03 1015.97 1015.91 1015.87 1015.88 1015.96 1016.12 1016.36 1016.67 1017.05 1017.47 1017.93 1018.41 1018.89 1019.36 1019.80 1020.22 1020.61 1020.95 1021.24 1021.48 1021.67 1021.82 1021.95 1022.05 1022.15 1022.26 1022.39 1022.54 1022.71 1022.89
1014.93 1015.00 1015.11 1015.23 1015.36 1015.46 1015.53 1015.56 1015.56 1015.56 1015.57 1015.61 1015.69 1015.84 1016.05 1016.33 1016.66 1017.03 1017.44 1017.87 1018.31 1018.74 1019.17 1019.58 1019.97 1020.33 1020.66 1020.95 1021.20 1021.43 1021.63 1021.82 1022.01 1022.19 1022.39 1022.59 1022.80 1023.01
1014.52 1014.50 1014.54 1014.63 1014.74 1014.85 1014.95 1015.03 1015.10 1015.16 1015.23 1015.31 1015.42 1015.57 1015.77 1016.01 1016.30 1016.62 1016.96 1017.33 1017.71 1018.10 1018.49 1018.87 1019.25 1019.61 1019.96 1020.29 1020.59 1020.88 1021.16 1021.42 1021.68 1021.93 1022.17 1022.42 1022.66 1022.90
1014.22 1014.09 1014.05 1014.07 1014.13 1014.23 1014.34 1014.46 1014.57 1014.68 1014.80 1014.92 1015.07 1015.24 1015.43 1015.66 1015.90 1016.17 1016.46 1016.77 1017.08 1017.41 1017.75 1018.10 1018.46 1018.81 1019.17 1019.52 1019.87 1020.21 1020.54 1020.85 1021.16 1021.46 1021.75 1022.03 1022.30 1022.56
1013.98 1013.75 1013.60 1013.54 1013.54 1013.59 1013.68 1013.79 1013.93 1014.07 1014.22 1014.39 1014.56 1014.75 1014.96 1015.17 1015.40 1015.63 1015.88 1016.13 1016.40 1016.68 1016.98 1017.29 1017.62 1017.96 1018.32 1018.68 1019.05 1019.41 1019.77 1020.12 1020.46 1020.78 1021.10 1021.40 1021.69 1021.97
1013.76 1013.42 1013.17 1013.01 1012.92 1012.91 1012.95 1013.03 1013.15 1013.29 1013.46 1013.65 1013.84 1014.05 1014.27 1014.48 1014.70 1014.92 1015.15 1015.38 1015.62 1015.87 1016.13 1016.42 1016.73 1017.06 1017.41 1017.77 1018.14 1018.51 1018.87 1019.23 1019.58 1019.91 1020.24 1020.55 1020.85 1021.15
1013.51 1013.08 1012.74 1012.47 1012.29 1012.18 1012.15 1012.16 1012.23 1012.35 1012.49 1012.67 1012.88 1013.09 1013.32 1013.55 1013.78 1014.01 1014.23 1014.46 1014.70 1014.94 1015.20 1015.48 1015.78 1016.11 1016.44 1016.80 1017.16 1017.52 1017.87 1018.22 1018.56 1018.88 1019.20 1019.51 1019.82 1020.13
1013.23 1012.73 1012.31 1011.95 1011.66 1011.45 1011.31 1011.24 1011.23 1011.27 1011.37 1011.52 1011.70 1011.91 1012.13 1012.38 1012.62 1012.87 1013.12 1013.37 1013.62 1013.88 1014.16 1014.45 1014.76 1015.08 1015.42 1015.77 1016.12 1016.46 1016.80 1017.14 1017.46 1017.77 1018.07 1018.37 1018.68 1019.00
1012.97 1012.43 1011.93 1011.48 1011.09 1010.77 1010.51 1010.32 1010.20 1010.15 1010.17 1010.25 1010.38 1010.56 1010.78 1011.01 1011.27 1011.54 1011.81 1012.09 1012.38 1012.67 1012.98 1013.30 1013.63 1013.98 1014.33 1014.68 1015.04 1015.38 1015.72 1016.04 1016.35 1016.64 1016.94 1017.23 1017.54 1017.85
1012.80 1012.22 1011.67 1011.15 1010.66 1010.22 1009.84 1009.52 1009.27 1009.10 1009.01 1008.99 1009.05 1009.16 1009.34 1009.55 1009.79 1010.07 1010.36 1010.66 1010.98 1011.32 1011.67 1012.03 1012.40 1012.78 1013.17 1013.55 1013.93 1014.30 1014.65 1014.98 1015.29 1015.60 1015.89 1016.18 1016.48 1016.80
1012.79 1012.19 1011.59 1011.00 1010.42 1009.87 1009.36 1008.91 1008.52 1008.21 1007.99 1007.85 1007.80 1007.83 1007.93 1008.09 1008.30 1008.55 1008.83 1009.15 1009.49 1009.85 1010.24 1010.65 1011.07 1011.51 1011.95 1012.39 1012.82 1013.24 1013.63 1014.01 1014.35 1014.68 1015.00 1015.30 1015.60 1015.91
1012.97 1012.37 1011.73 1011.08 1010.42 1009.77 1009.14 1008.55 1008.03 1007.58 1007.21 1006.94 1006.76 1006.68 1006.67 1006.74 1006.88 1007.08 1007.33 1007.63 1007.96 1008.34 1008.76 1009.21 1009.69 1010.19 1010.70 1011.21 1011.72 1012.22 1012.69 1013.13 1013.54 1013.92 1014.27 1014.59 1014.91 1015.21
Thickness
5732 5730 5728 5727 5725 5723 5720 5716 5709 5702 5697 5696 5694 5694 5693 5692 5691 5690 5688 5687 5686 5684 5682 5681 5680 5679 5678 5677 5675 5674 5673 5673 5672 5671 5670 5669 5668 5667
5728 5726 5724 5722 5720 5719 5716 5714 5710 5705 5696 5691 5689 5687 5686 5685 5683 5681 5679 5678 5677 5675 5673 5672 5670 5669 5668 5667 5665 5664 5663 5662 5662 5661 5661 5660 5659 5658
5723 5721 5719 5717 5715 5713 5712 5709 5706 5702 5694 5687 5684 5681 5679 5677 5675 5673 5671 5669 5667 5665 5663 5661 5660 5658 5657 5656 5654 5652 5651 5650 5650 5650 5649 5648 5648 5647
5718 5716 5714 5713 5710 5708 5706 5704 5700 5697 5692 5684 5678 5675 5672 5670 5668 5666 5663 5661 5658 5655 5653 5652 5649 5648 5646 5644 5642 5641 5640 5639 5638 5637 5636 5636 5635 5634
5713 5711 5709 5708 5705 5703 5701 5698 5694 5691 5686 5681 5674 5669 5666 5663 5660 5658 5655 5652 5649 5646 5643 5641 5639 5637 5635 5633 5631 5629 5628 5627 5626 5625 5624 5623 5622 5621
5708 5706 5705 5703 5700 5698 5695 5691 5688 5684 5679 5674 5669 5663 5659 5655 5653 5650 5646 5643 5640 5637 5634 5631 5629 5627 5624 5622 5621 5619 5617 5615 5614 5613 5611 5610 5609 5607
5702 5701 5699 5698 5695 5693 5690 5685 5682 5677 5673 5668 5663 5658 5653 5649 5646 5642 5638 5634 5630 5627 5624 5621 5619 5616 5614 5611 5609 5607 5606 5604 5603 5601 5599 5597 5596 5594
5697 5695 5693 5691 5689 5686 5683 5680 5677 5673 5668 5663 5658 5653 5648 5644 5640 5636 5632 5628 5624 5618 5616 5612 5609 5606 5604 5601 5599 5597 5595 5593 5592 5589 5587 5585 5584 5583
5691 5689 5687 5684 5682 5679 5676 5673 5669 5666 5663 5659 5654 5649 5644 5640 5635 5631 5626 5622 5617 5612 5609 5605 5601 5598 5595 5592 5590 5588 5585 5583 5581 5579 5576 5575 5573 5571
5684 5682 5679 5677 5675 5672 5669 5665 5661 5657 5655 5652 5649 5644 5640 5635 5631 5627 5621 5614 5609 5605 5602 5599 5594 5591 5588 5584 5581 5579 5576 5574 5571 5569 5566 5564 5562 5560
5678 5675 5673 5670 5668 5665 5662 5658 5654 5650 5647 5644 5641 5637 5633 5629 5625 5620 5614 5610 5605 5600 5594 5592 5588 5584 5581 5577 5574 5571 5568 5566 5563 5561 5558 5555 5553 5551
5671 5668 5666 5664 5661 5659 5656 5652 5647 5642 5640 5637 5633 5630 5625 5621 5617 5613 5609 5604 5599 5594 5589 5585 5581 5577 5575 5571 5567 5564 5561 5558 5556 5553 5550 5547 5545 5542
5665 5661 5658 5656 5654 5651 5649 5645 5641 5636 5632 5629 5625 5621 5617 5613 5608 5604 5600 5597 5593 5589 5584 5579 5575 5571 5568 5564 5560 5557 5554 5551 5548 5545 5543 5540 5537 5534
5659 5655 5652 5649 5647 5644 5641 5637 5633 5629 5625 5621 5617 5612 5608 5604 5600 5596 5592 5589 5585 5582 5578 5573 5570 5565 5562 5559 5555 5551 5547 5543 5540 5538 5535 5533 5530 5527
5653 5649 5646 5643 5639 5636 5632 5629 5625 5621 5617 5613 5609 5604 5599 5595 5592 5588 5585 5581 5578 5575 5571 5567 5563 5559 5556 5553 5549 5544 5541 5537 5534 5531 5528 5526 5523 5520
5646 5642 5639 5635 5632 5628 5624 5620 5616 5613 5609 5605 5601 5596 5592 5588 5585 5582 5578 5574 5571 5567 5563 5559 5556 5553 5550 5545 5542 5538 5535 5532 5528 5524 5522 5519 5517 5514
5639 5636 5632 5628 5624 5620 5616 5612 5608 5604 5600 5596 5593 5589 5585 5582 5578 5574 5570 5567 5564 5560 5556 5552 5548 5545 5542 5539 5536 5533 5529 5526 5522 5518 5515 5514 5512 5510
5633 5629 5625 5621 5617 5613 5609 5605 5601 5597 5593 5589 5585 5582 5579 5575 5571 5567 5563 5560 5557 5553 5549 5545 5541 5539 5536 5533 5529 5527 5524 5520 5516 5513 5510 5509 5508 5506
5626 5622 5618 5614 5610 5606 5602 5598 5595 5590 5586 5582 5579 5575 5572 5568 5564 5561 5557 5553 5550 5547 5542 5538 5535 5533 5531 5529 5526 5520 5517 5515 5511 5509 5506 5504 5503 5502
5619 5616 5612 5608 5604 5600 5596 5592 5588 5584 5580 5576 5572 5568 5565 5561 5558 5555 5551 5547 5544 5540 5537 5533 5529 5526 5524 5522 5519 5515 5511 5508 5506 5504 5502 5499 5497 5495
5614 5610 5606 5602 5598 5594 5590 5586 5582 5578 5574 5570 5566 5562 5558 5555 5552 5549 5545 5540 5537 5535 5532 5529 5525 5520 5516 5512 5511 5510 5507 5503 5501 5498 5496 5494 5493 5491
5609 5605 5600 5596 5592 5588 5584 5580 5575 5571 5568 5564 5560 5556 5553 5549 5546 5543 5539 5536 5532 5529 5526 5523 5518 5514 5511 5509 5508 5505 5502 5498 5495 5492 5489 5487 5486 5486
5604 5600 5595 5591 5586 5582 5578 5574 5570 5566 5562 5559 5555 5551 5547 5544 5540 5536 5533 5530 5527 5523 5520 5517 5513 5510 5507 5503 5501 5498 5495 5492 5490 5487 5485 5482 5479 5477